R8AHC-W3 Weather Reports


time (UTC)temp
C
wind
direction
speed
KPH
gust
KPH
rain 1hr
cm
rain 24hr
cm
rain mn
cm
humidity
%
barometer
mb
20260508185702 15 207 6.4 0.0 0.00 0.00 0.00 68 1007.0
20260508175703 15 207 6.4 0.0 0.00 0.00 0.00 68 1007.0
20260508165705 15 207 6.4 0.0 0.00 0.00 0.00 68 1008.0
20260508155702 15 207 6.4 0.0 0.00 0.00 0.00 68 1008.0
20260508135702 21 63 9.7 0.0 0.00 0.00 0.00 54 1008.0
20260508125702 21 63 9.7 0.0 0.00 0.00 0.00 54 1008.0
20260508115701 21 63 9.7 0.0 0.00 0.00 0.00 54 1008.0
20260508105703 21 63 9.7 0.0 0.00 0.00 0.00 54 1009.0
20260508095703 21 63 9.7 0.0 0.00 0.00 0.00 54 1009.0
20260508085702 21 63 9.7 0.0 0.00 0.00 0.00 54 1009.0
20260508075702 21 63 9.7 0.0 0.00 0.00 0.00 54 1010.0
20260508065702 21 63 9.7 0.0 0.00 0.00 0.00 54 1010.0
20260508045702 19 72 6.4 0.0 0.00 0.00 0.00 61 1011.0
20260508035702 12 5 4.8 0.0 0.00 0.00 0.00 84 1011.0
20260508025702 12 5 4.8 0.0 0.00 0.00 0.00 84 1011.0
20260508015702 12 5 4.8 0.0 0.00 0.00 0.00 84 1011.0
20260508005702 12 5 4.8 0.0 0.00 0.00 0.00 84 1011.0
20260507225702 12 81 3.2 0.0 0.00 0.00 0.00 82 1011.0
20260507205702 17 50 3.2 0.0 0.00 0.00 0.00 65 1011.0
20260507195702 17 50 3.2 0.0 0.00 0.00 0.00 65 1010.0